Flag for U.S.A. Weather past 2 weeks in Metairie, Louisiana, U.S.A.

Now
79 °F

Passing clouds.


Feels Like: 82 °F
Forecast: 77 / 87 °F
Wind: 13 mph from Southeast

Location: New Orleans International Airport

Current Time: May 23, 2015 at 10:51:39 PM

Latest Report: May 23, 2015 at 9:53 PM


Visibility: 10 mi

Pressure: 30.11 "Hg

Humidity: 72%

Dew point: 69 °F

Location of MetairieLocation

Historic Weather in Metairie — Graph

°F

Metairie temperature yesterday

Maximum temperature yesterday: 82 °F (at 3:53 PM)
Minimum temperature yesterday: 68 °F (at 7:53 AM)
Average temperature yesterday: 75 °F

Past Weeks' High & Low Weather Summary

 TemperatureHumidityPressure
High89 °F (May 20, 3:53 PM)91% (May 15, 9:53 PM)30.22 "Hg (May 15, 9:53 PM)
Low68 °F (May 22, 7:53 AM)49% (May 9, 3:53 PM)29.97 "Hg (May 20, 5:53 PM)
Average79 °F75%30.09 "Hg
* Reported May 8 8:53 PM — May 23 8:53 PM, Metairie, Weather by CustomWeather, © 2015

Note: Actual official high and low records may vary slightly from our data, if they occured in-between our weather recording intervals... More about our weather records

Advertising

Metairie weather history for previous 24 hours

 ConditionsComfort  
Time TempWeatherWind HumidityBarometerVisibility
8:53 PM
Sat, May 23
80 °FPassing clouds.12 mph71%30.11 "Hg10 mi
7:53 PM81 °FPartly sunny.9 mph67%30.11 "Hg10 mi
6:53 PM82 °FSunny.13 mph63%30.12 "Hg10 mi
5:53 PM82 °FBroken clouds.15 mph65%30.13 "Hg10 mi
4:53 PM83 °FPartly sunny.12 mph61%30.14 "Hg10 mi
3:53 PM84 °FPartly sunny.15 mph59%30.15 "Hg10 mi
2:53 PM87 °FPartly sunny.13 mph55%30.18 "Hg10 mi
1:53 PM85 °FLight rain. Broken clouds.15 mph55%30.19 "Hg10 mi
12:53 PM85 °FPartly sunny.9 mph53%30.20 "Hg10 mi
11:53 AM85 °FBroken clouds.9 mph53%30.21 "Hg10 mi
10:53 AM84 °FPartly sunny.13 mph55%30.22 "Hg10 mi
9:53 AM83 °FPartly sunny.9 mph57%30.22 "Hg10 mi
8:53 AM81 °FScattered clouds.6 mph62%30.22 "Hg10 mi
7:53 AM78 °FPassing clouds.7 mph71%30.21 "Hg10 mi
6:53 AM75 °FPassing clouds.5 mph79%30.20 "Hg10 mi
5:53 AM73 °FPassing clouds.3 mph81%30.19 "Hg10 mi
4:53 AM72 °FPassing clouds.No wind84%30.17 "Hg10 mi
3:53 AM72 °FPassing clouds.No wind81%30.16 "Hg10 mi
2:53 AM74 °FPassing clouds.3 mph79%30.15 "Hg10 mi
1:53 AM73 °FPassing clouds.3 mph81%30.15 "Hg10 mi
12:53 AM74 °FClear.3 mph79%30.16 "Hg10 mi
11:53 PM
Fri, May 22
74 °FPassing clouds.3 mph79%30.18 "Hg10 mi
10:53 PM75 °FPassing clouds.5 mph76%30.18 "Hg10 mi
Weather by CustomWeather, © 2015

See weather overviewHow to use our weather pages